Temp
14 14 13 13 13 13 13 12 12 12 12 11 11 11 11 11 11 10 10 10 10 10 9 9 8 8 8 8 8 7 7 7 7 7 7 6 6 6 6 6 6 5 5 5 5 5 5 5 4 4 4 4 4 4 4 3 3 3 3 3 3 2 2 2 2 2 2 2 2
13 13 13 13 13 13 12 12 12 11 11 11 11 11 11 11 10 10 10 9 9 9 9 9 8 8 8 7 7 7 7 7 7 6 6 6 6 6 6 5 5 5 5 5 5 5 4 4 4 4 4 4 4 4 3 3 3 3 3 3 2 2 2 2 2 2 2 2 2
13 13 13 13 13 12 12 12 11 11 11 11 11 11 11 10 10 10 10 9 9 9 9 8 8 8 7 7 7 7 7 7 6 6 6 6 6 6 5 5 5 5 5 5 4 4 4 4 4 4 4 4 3 3 3 3 3 3 2 2 2 2 2 2 2 2 2 2 1
13 13 13 13 12 12 12 12 11 11 11 10 10 10 10 10 10 10 10 9 9 9 8 8 8 7 7 7 7 7 6 6 6 6 6 6 6 5 5 5 5 5 4 4 4 4 4 4 4 4 3 3 3 3 3 3 3 2 2 2 2 2 2 2 2 2 1 1 1
13 13 13 12 12 12 12 12 11 11 10 10 10 10 10 10 10 10 9 9 9 8 8 8 7 7 7 7 6 6 6 6 6 6 6 5 5 5 5 5 5 4 4 4 4 4 4 4 3 3 3 3 3 3 3 2 2 2 2 2 2 2 2 2 2 1 1 1 1
12 12 12 12 12 12 12 11 11 11 11 11 11 10 10 10 10 9 9 9 8 8 8 7 7 7 7 6 6 6 6 6 6 6 6 5 5 5 5 4 4 4 4 4 4 4 3 3 3 3 3 3 3 3 2 2 2 2 2 2 2 2 2 1 1 1 1 1 1
12 12 12 12 12 12 11 11 11 11 11 11 11 11 10 10 9 9 9 8 8 8 7 7 7 7 6 6 6 6 6 6 6 5 5 5 5 5 4 4 4 4 4 4 4 3 3 3 3 3 3 3 3 2 2 2 2 2 2 2 2 2 1 1 1 1 1 1 1
12 12 12 12 12 12 11 11 11 11 11 11 11 10 10 9 9 9 8 8 8 7 7 7 7 6 6 6 6 6 6 6 5 5 5 5 5 4 4 4 4 4 4 3 3 3 3 3 3 3 3 2 2 2 2 2 2 2 2 1 1 1 1 1 1 1 1 1 1
12 12 12 12 11 11 11 11 11 11 11 11 10 10 9 9 9 8 8 8 7 7 7 7 6 6 6 6 6 6 5 5 5 5 5 4 4 4 4 4 4 4 3 3 3 3 3 3 3 3 2 2 2 2 2 2 2 1 1 1 1 1 1 1 1 1 1 1 1
11 11 11 11 11 11 10 10 11 11 11 10 10 9 9 9 8 8 8 7 7 7 7 6 6 6 6 6 5 5 5 5 5 5 4 4 4 4 4 4 4 3 3 3 3 3 3 3 3 2 2 2 2 2 2 1 1 1 1 1 1 1 1 1 1 1 1 1 1
11 11 11 11 10 10 10 10 10 10 10 10 9 9 8 8 8 8 7 7 7 7 6 6 6 6 6 5 5 5 5 5 4 4 4 4 4 4 4 3 3 3 3 3 3 3 3 2 2 2 2 2 2 2 1 1 1 1 1 1 1 1 1 1 1 1 1 1 0
11 11 10 10 10 10 10 10 10 10 9 9 9 8 8 8 8 7 7 7 7 6 6 6 6 6 5 5 5 5 4 4 4 4 4 4 4 4 3 3 3 3 3 3 3 2 2 2 2 2 2 2 1 1 1 1 1 1 1 1 1 1 1 1 1 1 1 0 0
10 10 10 10 10 10 10 10 10 9 9 9 8 8 8 8 7 7 7 6 6 6 6 6 5 5 5 5 5 4 4 4 4 4 4 4 4 3 3 3 3 3 3 3 2 2 2 2 2 1 1 1 1 1 1 1 1 1 1 1 1 1 1 1 1 1 1 0 0
10 10 10 10 10 10 10 9 9 9 9 8 8 8 8 7 7 7 6 6 6 6 6 5 5 5 5 5 4 4 4 4 4 4 4 4 3 3 3 3 3 3 2 2 2 2 2 2 1 1 1 1 1 1 1 1 1 1 1 1 1 1 1 1 1 1 0 0 0
10 10 10 10 10 9 9 9 9 9 8 8 8 7 7 7 7 6 6 6 6 6 5 5 5 5 4 4 4 4 4 4 4 4 4 3 3 3 3 3 3 2 2 2 2 2 2 1 1 1 1 1 1 1 1 1 1 1 1 1 1 1 1 1 1 0 0 0 -0
9 9 9 9 9 9 9 9 8 8 8 8 7 7 7 7 6 6 6 6 5 5 5 5 5 4 4 4 4 4 4 4 4 4 3 3 3 3 3 2 2 2 2 2 2 2 1 1 1 1 1 1 1 1 1 1 1 1 1 1 1 1 1 1 0 0 0 -0 -0
9 9 9 9 9 9 9 8 8 8 8 7 7 7 6 6 6 6 6 5 5 5 5 5 4 4 4 4 4 4 4 4 4 3 3 3 3 2 2 2 2 2 2 2 1 1 1 1 1 1 1 1 1 1 1 1 1 1 1 1 1 1 1 0 0 0 0 -0 -0
9 9 9 9 9 8 8 8 8 8 7 7 7 6 6 6 6 6 5 5 5 5 4 4 4 4 4 4 4 4 4 4 3 3 3 3 2 2 2 2 2 2 1 1 1 1 1 1 1 1 1 1 1 1 1 1 1 1 1 1 1 0 0 0 0 0 -0 -0 -0
8 8 8 8 8 8 8 8 8 7 7 7 6 6 6 6 6 5 5 5 5 4 4 4 4 4 4 4 4 4 3 3 3 3 3 2 2 2 2 2 2 1 1 1 1 1 1 1 1 1 0 0 0 1 1 1 1 1 1 0 0 0 0 0 0 -0 -0 -0 -0
8 8 8 8 8 8 8 7 7 7 7 6 6 6 6 5 5 5 5 5 4 4 4 4 4 4 4 4 4 4 3 3 3 3 2 2 2 2 2 1 1 1 1 1 1 1 1 1 0 0 0 0 0 1 1 1 0 0 0 0 0 0 0 0 -0 -0 -0 -0 -0
8 8 8 8 8 8 7 7 7 7 6 6 6 6 5 5 5 5 4 4 4 4 4 4 4 4 4 4 4 3 3 3 3 2 2 2 2 2 1 1 1 1 1 1 1 1 1 0 0 0 0 0 0 0 0 0 0 0 0 0 0 0 -0 -0 -0 -0 -0 -0 -1
8 8 8 7 7 7 7 7 6 6 6 6 5 5 5 5 5 4 4 4 4 4 4 4 4 4 4 4 3 3 3 3 2 2 2 2 2 1 1 1 1 1 1 1 1 1 0 0 0 0 0 0 0 0 0 0 0 0 0 -0 -0 -0 -0 -0 -0 -0 -0 -1 -1
7 7 7 7 7 7 6 6 6 6 6 5 5 5 5 5 4 4 4 4 4 4 4 4 4 4 3 3 3 3 3 3 2 2 2 2 1 1 1 1 1 1 1 1 0 0 -0 -0 0 0 0 0 0 0 0 0 0 -0 -0 -0 -0 -0 -0 -0 -0 -1 -1 -1 -1
7 7 7 7 7 6 6 6 6 5 5 5 5 5 5 4 4 4 4 4 4 4 4 4 3 3 3 3 3 3 3 2 2 2 2 2 1 1 1 1 1 1 1 0 0 -0 -0 0 0 0 0 0 0 0 0 -0 -0 -0 -0 -0 -1 -1 -1 -1 -1 -1 -1 -1 -1
7 7 7 6 6 6 6 5 5 5 5 5 5 4 4 4 4 4 4 4 4 4 4 3 3 3 3 3 3 2 2 2 2 2 2 2 1 1 1 1 1 0 0 0 -0 -0 -0 0 0 0 0 0 0 0 -0 -0 -0 -0 -1 -1 -1 -1 -1 -1 -1 -1 -1 -1 -1
7 6 6 6 6 5 5 5 5 5 5 5 4 4 4 4 4 4 4 4 4 4 3 3 3 3 3 3 2 2 2 2 2 1 1 1 1 1 1 1 0 0 0 -0 -1 -0 -0 0 0 0 0 0 0 -0 -0 -0 -1 -1 -1 -1 -1 -1 -1 -1 -1 -1 -1 -1 -1
6 6 6 5 5 5 5 5 5 5 5 4 4 4 4 4 4 4 4 4 4 3 3 3 3 3 3 3 2 2 2 2 1 1 1 1 1 1 1 0 0 0 -0 -0 -1 -1 -0 0 0 0 0 0 -0 -0 -0 -1 -1 -1 -1 -1 -1 -1 -1 -1 -1 -1 -1 -1 -2
6 6 5 5 5 5 5 5 5 5 4 4 4 4 4 4 4 4 4 4 4 3 3 3 3 3 3 2 2 2 2 1 1 1 1 1 1 0 0 0 -0 -0 -0 -1 -1 -1 -0 -0 -0 -0 -0 -0 -0 -0 -1 -1 -1 -1 -1 -1 -1 -1 -1 -1 -1 -1 -1 -2 -2
5 5 5 5 5 5 5 4 4 4 4 4 4 4 4 4 4 4 4 4 4 3 3 3 3 3 3 2 2 2 2 1 1 1 1 1 0 0 0 -0 -0 -0 -0 -1 -1 -1 -0 -0 -0 -0 -0 -0 -0 -1 -1 -1 -1 -1 -2 -2 -2 -1 -1 -1 -1 -2 -2 -2 -2
5 5 5 5 4 4 4 4 4 4 4 4 4 4 4 3 3 3 3 3 3 3 3 3 3 3 2 2 2 2 1 1 1 1 1 0 0 0 -0 -0 -0 -0 -1 -1 -1 -1 -1 -1 -0 -0 -0 -0 -1 -1 -1 -1 -2 -2 -2 -2 -2 -2 -1 -1 -2 -2 -2 -2 -2
5 5 4 4 4 4 4 4 4 4 4 4 4 4 3 3 3 3 3 3 3 3 3 3 3 3 2 2 2 2 1 1 1 1 0 0 0 -0 -0 -0 -0 -1 -1 -1 -1 -1 -1 -1 -1 -1 -1 -1 -1 -1 -1 -2 -2 -2 -2 -2 -2 -2 -2 -2 -2 -2 -2 -2 -2
4 4 4 4 4 4 4 4 4 4 4 4 3 3 3 3 3 3 3 3 3 3 3 3 3 2 2 2 2 1 1 1 1 0 0 0 -0 -0 -0 -0 -1 -1 -1 -1 -1 -1 -1 -1 -1 -1 -1 -1 -1 -1 -1 -2 -2 -2 -2 -2 -2 -2 -2 -2 -2 -2 -2 -2 -2
4 4 4 4 4 4 4 4 4 4 4 3 3 3 3 3 3 3 3 3 3 3 3 2 2 2 2 2 1 1 1 1 1 0 0 -0 -0 -0 -1 -1 -1 -1 -1 -1 -1 -1 -1 -1 -1 -1 -1 -1 -1 -1 -2 -2 -2 -2 -2 -2 -2 -2 -2 -2 -2 -2 -2 -2 -2
4 4 4 4 4 4 4 4 4 4 3 3 3 3 3 3 3 3 3 3 3 2 2 2 2 2 1 1 1 1 1 1 0 0 -0 -0 -0 -1 -1 -1 -1 -1 -1 -1 -2 -2 -1 -1 -1 -1 -1 -1 -1 -2 -2 -2 -2 -2 -2 -3 -3 -3 -2 -2 -2 -2 -2 -2 -2
4 4 4 4 4 4 4 4 4 3 3 3 3 3 3 3 3 3 3 3 2 2 2 2 2 1 1 1 1 1 1 0 0 0 -0 -0 -1 -1 -1 -1 -1 -1 -1 -1 -2 -2 -2 -2 -1 -1 -1 -1 -2 -2 -2 -2 -2 -2 -3 -3 -3 -3 -3 -3 -3 -3 -3 -2 -2
4 4 4 4 4 4 4 4 3 3 3 3 3 3 3 3 2 2 2 2 2 2 2 2 2 1 1 1 1 1 0 0 -0 -0 -0 -1 -1 -1 -1 -1 -1 -1 -1 -1 -2 -2 -2 -2 -2 -1 -1 -1 -2 -2 -2 -2 -2 -2 -3 -3 -3 -3 -3 -3 -3 -3 -2 -2 -2
4 4 4 4 4 4 4 3 3 3 3 3 3 3 3 2 2 2 2 2 2 2 2 2 2 1 1 1 1 0 0 -0 -0 -0 -0 -1 -1 -1 -1 -1 -1 -1 -1 -1 -2 -2 -2 -2 -2 -2 -2 -2 -2 -2 -2 -2 -2 -2 -3 -3 -3 -3 -3 -3 -2 -2 -2 -2 -3
4 4 4 4 4 4 3 3 3 3 3 3 3 2 2 2 2 2 2 2 2 2 2 1 1 1 1 1 0 0 0 -0 -0 -0 -1 -1 -1 -1 -1 -1 -1 -1 -2 -2 -2 -2 -2 -2 -2 -2 -2 -2 -2 -2 -2 -2 -2 -2 -3 -3 -3 -3 -2 -2 -2 -2 -2 -3 -3
4 4 4 4 4 3 3 3 3 3 3 2 2 2 2 2 2 2 1 1 1 1 1 1 1 1 1 0 0 0 0 -0 -0 -1 -1 -1 -1 -1 -1 -2 -2 -2 -2 -2 -2 -2 -2 -2 -2 -2 -2 -2 -2 -2 -2 -2 -2 -2 -3 -3 -2 -2 -2 -2 -2 -3 -3 -3 -3
3 4 4 4 4 3 3 3 3 3 2 2 2 2 2 2 2 1 1 1 1 1 1 1 1 1 0 0 0 -0 -0 -0 -0 -1 -1 -1 -1 -1 -2 -2 -2 -2 -2 -2 -2 -2 -2 -2 -2 -2 -2 -2 -2 -2 -2 -2 -2 -2 -2 -2 -2 -2 -2 -2 -3 -3 -3 -3 -3
3 3 3 3 3 3 3 3 3 2 2 2 2 2 2 1 1 1 1 1 1 1 1 1 1 0 0 0 -0 -0 -0 -0 -1 -1 -1 -1 -1 -1 -2 -2 -2 -2 -2 -2 -2 -2 -3 -2 -2 -2 -2 -2 -2 -2 -2 -2 -2 -2 -2 -2 -2 -2 -2 -3 -3 -3 -3 -3 -3
Height
769 770 772 773 774 776 777 778 780 781 782 783 783 784 785 787 788 789 790 791 792 792 792 793 793 793 793 793 793 793 793 793 793 793 792 792 792 792 791 791 790 790 789 789 788 788 788 787 787 786 786 785 785 784 784 783 783 782 782 781 781 780 779 778 778 777 777 776 775
770 771 772 773 775 776 777 778 780 781 782 783 784 785 786 787 788 789 790 791 791 792 792 793 793 793 793 793 793 793 793 793 793 792 792 792 791 791 791 790 790 789 789 788 788 788 787 786 786 785 785 784 784 784 783 783 782 782 781 780 780 779 778 778 777 777 776 775 774
770 771 772 773 775 776 777 778 780 781 782 783 784 785 786 787 788 789 790 791 791 792 792 793 793 793 793 793 793 793 793 793 792 792 792 791 791 791 790 790 789 789 788 788 788 787 786 786 785 785 784 784 783 783 782 782 781 781 780 779 779 778 778 777 776 776 775 774 773
770 771 772 773 775 776 777 778 779 781 782 783 784 785 786 787 788 789 790 791 791 792 792 792 793 793 793 793 793 793 793 792 792 792 791 791 791 790 790 789 789 788 788 787 787 786 786 785 785 784 783 783 783 782 782 781 781 780 779 779 778 778 777 776 775 775 774 773 773
770 771 773 774 775 776 777 778 780 781 782 783 784 785 786 787 788 789 790 790 791 792 792 792 793 793 793 793 793 792 792 792 792 791 791 790 790 790 789 789 788 788 787 787 786 786 785 784 784 783 783 783 782 782 781 781 780 779 779 778 778 777 776 775 774 774 773 772 771
770 772 773 774 775 776 778 779 780 781 782 783 784 785 786 787 788 789 790 790 791 792 792 792 792 793 793 792 792 792 792 791 791 791 790 790 790 789 789 788 788 787 787 786 785 785 784 784 783 783 782 782 781 781 781 780 779 779 778 777 777 776 775 774 773 773 772 771 770
770 772 773 774 776 777 778 779 780 781 782 783 784 785 786 787 788 789 790 790 791 791 792 792 792 792 792 792 792 792 791 791 791 790 790 789 789 789 788 788 787 787 786 785 785 784 783 783 783 782 782 781 781 780 780 779 779 778 777 776 776 775 774 773 772 772 771 770 769
771 772 773 774 776 777 778 779 780 781 782 783 784 785 786 787 788 789 790 790 791 791 792 792 792 792 792 791 791 791 791 790 790 790 789 789 788 788 788 787 787 786 785 785 784 783 783 782 782 781 781 781 780 780 779 779 778 777 776 775 774 774 773 772 771 770 769 768 768
771 772 774 775 776 778 778 779 780 781 782 783 784 785 786 787 788 789 789 790 791 791 791 791 791 791 791 791 791 791 790 790 789 789 789 788 788 787 787 786 786 785 785 784 783 783 782 782 781 781 781 780 780 779 778 778 777 776 775 774 773 773 772 771 770 769 768 768 767
771 772 774 775 777 778 779 780 781 781 782 783 784 785 786 787 788 789 789 790 790 791 791 791 791 791 791 790 790 790 790 789 789 788 788 788 787 787 786 786 785 784 784 783 783 782 781 781 781 780 780 780 779 778 778 777 776 775 774 773 773 772 771 770 769 768 767 766 765
771 772 774 775 777 778 779 780 781 781 782 783 784 785 786 787 788 789 789 790 790 790 790 791 790 790 790 790 790 790 789 789 788 788 788 787 787 786 786 785 784 784 783 783 782 781 781 780 780 779 779 779 778 778 777 776 775 774 773 772 771 770 769 768 768 767 766 765 764
771 773 774 776 777 778 779 780 781 782 783 783 784 785 786 787 788 789 789 790 790 790 790 790 790 790 790 790 789 789 789 788 788 788 787 787 786 786 785 784 784 783 783 782 781 781 780 780 779 779 778 778 777 777 776 775 774 773 772 771 770 769 768 767 767 766 765 764 763
771 773 774 776 777 778 779 780 781 782 783 784 785 786 787 787 788 789 789 789 790 790 790 790 790 790 789 789 789 789 788 788 788 787 787 786 786 785 784 784 783 783 782 782 781 780 780 779 779 778 778 777 776 776 775 774 773 772 771 770 769 768 767 766 765 764 764 763 762
772 773 775 776 777 778 779 780 781 782 783 784 785 786 787 788 788 788 789 789 789 789 789 789 789 789 789 789 788 788 788 788 787 787 786 786 785 784 784 783 783 782 782 781 780 780 779 779 778 778 777 776 775 775 774 773 772 771 770 769 768 767 766 765 764 763 763 762 761
773 774 775 776 778 778 779 780 781 782 783 784 785 786 787 788 788 788 789 789 789 789 789 789 789 789 788 788 788 788 787 787 787 786 785 785 784 784 783 783 782 782 781 780 780 779 779 778 778 777 776 775 774 774 773 772 771 770 769 768 767 766 765 764 763 762 761 760 759
773 774 776 777 778 778 779 780 781 782 783 784 785 786 787 788 788 788 788 789 789 789 789 789 788 788 788 788 788 787 787 786 786 785 785 784 784 783 783 782 782 781 780 780 779 778 778 778 777 776 775 774 773 773 772 771 770 769 768 767 766 765 764 763 762 761 760 759 758
773 775 776 777 778 778 779 780 782 783 783 784 785 786 787 788 788 788 788 788 788 788 788 788 788 788 788 788 787 787 786 786 785 785 784 784 783 783 782 782 781 780 780 779 778 778 777 777 776 775 775 774 773 772 771 770 769 768 767 766 765 764 763 762 761 760 759 758 757
774 775 776 777 778 779 779 781 782 783 784 785 786 786 787 788 788 788 788 788 788 788 788 788 788 788 787 787 786 786 786 785 785 784 784 783 783 783 782 781 781 780 779 778 778 777 776 776 775 774 773 773 772 771 770 769 768 767 766 765 764 763 762 761 760 759 758 757 756
774 775 777 777 778 779 780 781 782 783 784 785 786 786 787 787 788 788 788 788 788 788 788 788 787 787 787 786 786 785 785 785 784 784 783 783 783 782 781 781 780 779 778 778 777 776 775 775 774 773 772 771 770 769 768 768 767 765 764 763 763 762 761 760 759 758 757 756 755
774 776 777 778 778 779 780 781 782 783 784 785 786 786 787 787 788 788 788 788 788 788 787 787 787 786 786 786 785 785 785 784 784 783 783 783 782 782 781 780 779 778 778 777 776 775 774 774 773 772 771 770 769 768 767 766 765 764 763 762 761 760 759 758 758 757 756 755 754
775 776 777 778 778 779 780 781 782 783 784 785 786 786 787 787 787 788 788 787 787 787 787 787 786 786 785 785 785 784 784 784 784 783 783 782 782 781 780 779 778 778 777 776 775 774 773 773 772 771 770 769 768 767 766 765 764 763 762 761 760 759 758 757 756 755 754 753 753
775 776 777 778 779 780 780 782 783 783 784 785 786 786 787 787 787 787 787 787 787 787 787 786 786 785 785 784 784 784 784 784 783 783 782 782 781 780 779 779 778 777 776 775 774 773 773 772 771 770 769 768 768 766 765 764 763 762 761 760 759 758 757 756 755 754 753 752 751
775 776 777 778 779 780 781 782 783 783 784 785 786 786 787 787 787 787 787 787 787 786 786 786 785 785 785 784 784 784 783 783 783 782 782 781 780 779 779 778 777 776 775 774 773 773 772 771 770 770 769 768 767 765 764 763 762 760 759 758 757 756 756 755 754 753 752 751 750
775 776 777 778 779 780 781 782 783 783 784 785 786 786 786 787 787 787 787 786 786 786 786 785 785 785 784 784 784 783 783 783 782 782 781 780 779 779 778 777 776 775 774 774 773 772 772 771 770 769 768 767 766 764 763 762 761 759 758 757 756 755 754 753 753 752 751 750 749
776 777 778 778 779 780 781 782 783 783 784 785 785 786 786 786 786 786 786 786 786 786 785 785 785 784 784 784 783 783 783 782 782 781 780 779 778 778 777 776 775 775 774 773 773 772 772 771 770 768 767 766 764 763 762 761 760 758 757 756 755 753 753 752 751 750 749 748 748
776 777 778 778 779 780 781 782 783 784 784 785 785 786 786 786 786 786 786 786 785 785 785 785 784 784 784 783 783 783 782 782 781 780 779 778 778 777 776 776 775 774 773 773 772 772 771 770 769 768 766 765 763 762 761 759 758 758 756 755 754 753 751 750 749 748 748 747 747
776 777 778 779 780 781 782 782 783 784 784 785 785 785 785 785 785 785 785 785 785 785 784 784 784 784 783 783 783 782 782 781 780 780 779 778 777 776 776 775 774 773 773 772 771 771 770 769 768 767 765 764 763 761 760 758 757 756 755 754 753 752 751 749 748 747 746 746 745
776 777 778 779 780 781 782 783 783 784 784 785 785 785 785 785 785 785 785 785 784 784 784 784 783 783 783 783 782 782 781 780 780 779 778 778 777 776 775 775 774 773 772 771 771 770 769 768 767 766 764 763 762 760 759 758 756 755 754 753 752 751 750 748 748 746 746 745 744
776 777 778 779 780 781 782 783 783 784 784 784 784 785 785 785 785 785 784 784 784 784 783 783 783 783 783 782 781 781 780 780 779 778 778 777 776 775 775 774 773 773 772 771 770 769 768 767 766 765 763 762 761 759 758 757 756 754 753 752 751 750 749 748 747 746 745 744 743
776 778 778 779 780 781 782 783 783 783 784 784 784 784 784 784 784 784 784 784 783 783 783 783 783 782 782 781 781 780 780 779 778 778 777 776 775 775 774 773 773 772 771 770 769 768 767 766 765 763 763 761 760 759 757 756 755 754 753 752 750 749 748 747 746 745 744 743 742
777 778 778 779 780 781 782 783 783 783 784 784 784 784 784 784 784 784 783 783 783 783 783 783 782 782 781 781 780 779 779 778 778 777 777 776 775 774 773 773 772 771 770 769 768 767 766 765 764 763 762 760 759 758 757 755 754 753 752 751 750 748 748 747 746 744 743 742 741
777 778 779 780 780 781 782 783 783 783 783 783 784 784 784 784 783 783 783 783 783 783 782 782 782 781 780 780 779 779 778 778 777 777 776 775 774 773 773 772 771 770 769 768 767 766 765 764 763 762 760 759 758 757 756 755 753 753 751 750 749 748 747 746 745 744 743 742 741
777 778 779 780 780 781 782 782 783 783 783 783 783 783 783 783 783 783 783 783 783 782 782 782 781 780 780 779 779 778 778 777 777 776 775 775 774 773 772 771 770 769 768 767 766 765 764 763 762 761 759 758 757 756 755 754 753 752 750 749 748 748 746 745 744 743 742 741 739
777 778 779 780 781 781 782 782 783 783 783 783 783 783 783 783 783 783 783 782 782 782 782 781 781 780 780 779 778 778 777 777 776 775 775 774 773 772 771 770 769 768 767 766 765 764 763 762 761 760 758 758 756 755 754 753 752 751 749 748 748 747 746 744 743 742 741 739 738
777 778 779 780 780 781 782 782 782 783 783 783 783 783 783 783 783 783 782 782 782 782 781 781 780 780 779 779 778 777 777 776 775 775 774 773 772 771 770 769 768 767 767 765 764 763 762 761 760 759 758 757 755 754 753 752 751 749 748 748 746 745 744 743 742 741 739 738 736
778 778 779 780 780 781 782 782 782 782 783 783 783 783 783 783 782 782 782 782 781 781 781 780 780 779 778 778 777 777 776 776 775 774 773 773 771 770 769 768 767 766 766 764 763 762 761 760 759 758 757 756 754 753 752 751 750 748 748 746 745 744 743 742 741 739 738 736 735
778 778 779 780 780 781 781 782 782 782 782 782 782 782 782 782 782 782 782 781 781 780 780 779 779 778 778 777 777 776 776 775 774 773 773 772 771 769 768 767 766 765 765 764 763 762 761 759 758 757 756 755 753 752 751 750 748 748 746 745 744 743 742 740 739 737 736 734 733
778 778 779 780 780 781 781 781 782 782 782 782 782 782 782 782 782 782 781 781 781 780 779 779 778 778 778 777 776 776 775 775 774 773 772 771 770 769 768 766 765 764 764 763 762 761 760 759 758 757 755 754 753 751 750 749 748 746 745 744 743 741 740 738 737 735 734 733 733
778 778 779 780 780 780 781 781 781 781 782 782 782 782 782 782 782 781 781 781 780 780 779 778 778 778 777 777 776 775 774 774 773 773 771 770 769 768 767 766 765 764 763 762 761 760 759 758 757 756 754 753 752 750 749 748 747 745 744 743 741 739 738 736 735 733 732 732 731
778 778 779 779 780 780 781 781 781 781 782 782 782 782 782 782 781 781 781 780 780 779 779 778 778 777 777 776 775 774 774 773 773 772 771 770 769 768 767 765 764 763 762 761 760 759 758 757 756 755 754 753 751 750 748 747 745 744 743 742 740 738 735 734 733 732 731 730 729
778 778 779 779 780 780 780 781 781 781 782 782 782 782 782 781 781 781 780 780 779 779 778 778 777 777 776 776 775 774 773 772 772 771 770 769 768 767 766 765 763 763 761 761 759 758 758 757 755 754 753 752 750 749 748 746 744 743 741 740 738 736 734 732 731 731 730 729 728
Wind_Speed
29 28 27 26 24 23 22 21 19 18 17 17 16 15 13 12 11 10 9 7 6 5 4 3 2 2 1 1 0 1 1 1 2 2 2 3 3 4 4 5 6 6 7 8 8 9 10 11 11 12 12 13 13 14 14 15 15 16 17 17 18 18 19 19 18 18 18 18 18
28 27 26 25 24 23 22 21 20 19 18 16 15 14 13 12 11 10 9 7 6 5 4 3 2 1 1 0 1 1 1 1 1 2 2 3 3 4 5 5 6 7 7 8 9 10 10 11 12 12 13 13 14 14 14 15 16 17 18 18 19 19 19 19 19 18 18 18 18
28 27 26 25 24 23 23 22 21 20 19 17 15 14 12 11 10 10 9 7 6 5 4 3 2 1 0 0 1 1 1 1 1 2 2 3 4 4 5 6 6 7 8 8 9 10 11 11 12 13 13 14 14 15 15 16 17 18 18 19 19 19 19 19 19 18 18 18 18
27 27 26 25 24 24 23 23 22 21 20 18 16 14 12 11 10 9 8 7 6 5 4 3 2 1 1 1 1 1 1 1 2 2 3 4 4 5 6 6 7 8 8 9 9 10 11 11 12 13 13 14 15 16 16 17 18 18 19 19 20 20 19 19 19 18 18 19 18
28 27 26 25 24 23 22 22 22 21 20 18 16 14 12 11 10 9 8 7 6 5 4 3 2 1 1 1 1 1 1 2 2 3 4 4 5 6 6 7 8 8 9 9 10 10 11 12 12 13 14 15 15 16 17 18 19 19 19 20 20 19 19 19 19 19 19 19 19
28 27 26 24 23 23 22 22 21 20 19 17 15 14 12 11 10 8 7 6 5 4 3 3 2 1 1 1 1 1 1 2 3 3 4 5 6 6 7 8 8 9 9 10 10 11 12 12 13 13 14 15 16 17 17 18 19 20 20 20 20 19 19 19 19 19 19 19 19
28 27 26 24 23 22 22 21 20 19 17 15 14 13 12 10 9 8 7 6 5 4 3 3 2 2 1 1 0 1 2 2 3 4 5 6 6 7 8 8 9 9 10 10 11 11 12 13 14 15 15 16 17 18 18 19 19 20 20 20 20 19 19 19 19 19 19 19 19
27 26 25 24 23 22 21 20 19 18 16 14 13 12 11 10 9 8 6 5 5 4 3 3 2 2 1 0 1 1 2 3 4 5 6 7 7 8 8 9 9 10 10 11 12 12 13 14 14 15 16 17 18 18 19 19 19 20 20 20 20 19 19 19 19 19 19 19 19
27 26 24 23 22 21 20 19 18 16 15 14 13 11 10 9 8 7 6 5 5 4 3 3 2 2 1 0 1 2 3 4 5 6 7 7 8 9 9 10 10 10 11 12 12 13 14 15 15 16 17 18 19 19 19 19 19 19 20 20 20 19 19 18 19 19 19 19 19
27 26 24 23 22 21 19 18 16 15 14 14 12 11 10 9 8 7 6 5 4 4 4 3 2 1 0 1 2 3 4 5 6 7 7 8 9 9 10 11 11 11 12 13 13 14 15 16 16 17 17 18 19 19 19 19 19 19 19 19 20 20 19 19 19 19 19 18 18
27 25 24 23 22 20 19 17 16 14 14 13 12 11 10 9 8 7 6 5 5 4 4 3 2 1 1 2 3 4 5 6 6 7 8 8 9 10 10 11 12 12 13 14 14 15 16 17 18 18 18 19 19 19 19 19 19 19 19 19 19 20 20 20 19 19 19 18 18
27 25 24 23 21 20 18 17 16 14 13 13 12 11 10 9 8 7 6 5 5 5 4 3 2 1 1 2 3 4 5 6 7 8 8 9 9 10 11 11 12 13 13 14 15 16 17 17 18 19 19 19 19 19 19 18 19 19 19 19 20 20 21 21 20 19 19 18 18
26 25 23 22 20 19 18 16 16 15 14 13 12 11 10 9 8 7 6 6 5 5 3 2 1 1 2 3 4 5 6 7 7 8 8 9 10 10 11 12 13 13 14 15 16 16 17 18 19 19 19 19 19 18 18 18 18 19 20 20 20 21 21 21 20 19 19 18 17
25 24 23 21 20 18 17 16 16 15 14 13 12 11 10 9 8 7 7 6 5 4 3 2 2 2 3 4 5 6 6 7 8 8 9 9 10 11 12 13 13 14 15 16 16 17 18 18 19 19 19 19 19 18 18 18 18 19 20 20 21 21 21 21 20 19 19 18 18
24 23 21 20 19 18 17 16 15 14 13 12 11 10 10 9 8 8 7 6 5 4 3 2 2 2 3 4 5 6 7 8 8 9 9 10 11 12 13 13 14 15 16 16 17 17 18 18 18 18 18 18 18 18 18 18 19 19 20 20 21 21 21 21 20 20 19 18 18
23 21 20 19 18 17 16 16 15 14 13 12 11 10 10 9 9 8 6 5 4 3 3 2 2 3 4 4 5 6 7 8 8 9 10 11 12 13 13 14 15 16 17 17 18 18 18 18 18 17 17 18 18 18 19 19 19 20 20 20 21 21 21 21 20 20 19 19 19
22 20 19 18 17 17 16 15 14 13 13 12 11 11 10 9 8 7 6 5 4 3 2 2 2 3 4 5 6 7 7 8 9 10 11 12 13 13 14 15 15 16 17 18 18 19 19 18 17 17 17 17 18 19 20 20 20 21 21 21 21 21 21 21 20 20 19 19 19
21 20 19 18 17 16 16 15 14 13 13 12 11 11 10 9 8 7 5 4 3 3 3 3 3 4 5 5 6 7 8 9 10 10 11 12 13 14 14 15 16 16 17 18 19 19 19 18 17 17 17 18 19 20 20 21 21 21 21 21 21 21 21 21 20 20 20 20 20
21 20 18 17 17 16 15 15 14 13 13 12 11 11 10 8 7 6 5 4 3 3 3 3 4 4 5 6 7 8 8 9 10 11 11 12 13 13 14 15 16 17 17 18 18 18 18 18 18 18 19 19 20 20 21 21 21 21 22 22 22 22 21 21 21 20 20 20 20
20 19 18 17 16 16 15 15 14 13 13 12 11 10 9 8 6 5 4 4 3 3 3 4 4 5 6 6 7 8 9 9 10 11 11 12 13 14 15 16 16 17 18 18 18 18 18 18 18 19 20 20 21 21 21 21 22 22 22 22 22 22 22 21 21 21 21 21 21
20 19 18 17 16 16 15 15 14 13 13 12 11 10 8 7 6 5 4 3 3 3 3 4 5 6 7 7 8 9 9 10 10 11 12 12 13 14 15 16 17 17 18 19 19 18 18 18 19 20 20 21 21 21 21 22 22 22 22 22 22 22 22 21 21 21 21 21 21
19 18 17 16 16 15 15 15 14 13 13 12 10 9 8 6 5 4 4 3 3 3 4 5 6 6 7 8 9 9 9 10 10 11 12 13 14 14 15 16 17 18 19 19 19 19 19 19 20 20 20 21 21 21 21 22 22 22 23 22 22 22 22 22 22 22 22 22 21
19 18 17 16 16 16 15 15 14 13 12 11 10 8 7 6 5 4 3 3 3 3 4 5 6 7 7 8 9 9 10 10 11 11 12 13 14 15 16 17 18 19 19 20 19 19 19 20 20 20 20 20 21 21 21 22 22 22 22 22 22 22 22 22 22 22 22 22 21
19 18 17 17 16 16 15 14 14 13 11 10 9 7 6 5 4 3 3 2 3 3 4 5 6 6 7 8 8 9 10 11 12 13 13 14 15 16 17 17 18 19 20 20 19 18 18 19 20 20 20 20 21 21 22 22 22 22 22 22 23 23 23 23 23 22 22 21 19
19 18 17 17 16 16 15 14 13 12 11 9 8 7 6 5 4 3 2 2 3 3 4 5 6 6 7 8 8 9 10 11 13 14 15 15 16 17 17 18 19 20 20 20 19 18 18 18 19 20 20 21 21 22 22 21 21 21 22 22 23 24 24 24 23 22 21 19 18
19 18 17 17 16 15 14 13 12 11 10 9 7 6 5 4 3 3 2 2 3 4 4 5 6 7 7 8 9 9 10 12 13 14 16 17 17 18 18 19 20 20 21 20 19 18 18 18 19 19 20 21 21 22 22 21 21 21 22 22 23 24 24 24 23 21 19 18 17
19 18 17 16 16 15 14 13 11 10 9 8 6 5 4 3 3 2 2 3 3 4 5 5 6 7 8 9 10 11 12 13 14 15 16 17 18 19 19 19 20 21 21 20 19 18 18 19 19 19 20 20 21 22 21 21 21 22 22 23 23 23 23 23 22 20 19 17 17
19 18 17 16 15 14 13 12 10 9 8 7 5 4 3 3 2 2 2 3 3 4 5 6 7 8 8 9 10 12 13 14 15 15 16 17 18 19 19 20 20 21 21 20 18 18 19 19 19 19 20 20 21 21 21 21 22 22 23 23 23 23 22 21 20 18 17 17 17
19 18 17 16 14 13 12 11 9 8 7 6 5 4 3 2 1 2 2 3 4 5 6 7 8 8 9 10 11 12 13 14 15 16 17 18 18 19 19 20 20 21 21 20 18 18 19 19 19 19 20 20 20 20 20 21 22 23 23 23 23 23 21 20 18 17 17 17 18
18 17 16 15 14 12 11 10 8 7 6 5 4 3 2 1 1 2 2 4 5 6 7 8 8 9 10 11 12 13 14 15 16 17 18 18 19 20 20 20 21 21 21 20 18 18 19 19 19 19 20 20 20 20 20 21 22 23 23 23 23 22 21 19 18 18 18 19 21
17 16 15 14 13 12 10 9 8 6 5 4 3 3 2 1 1 2 3 4 5 6 7 8 9 10 11 12 13 14 15 16 16 17 18 19 20 20 20 20 21 21 21 19 18 18 19 19 19 20 20 20 19 19 20 21 22 22 22 22 22 21 20 19 19 19 20 21 23
17 15 14 13 12 11 10 8 7 6 5 4 3 2 2 1 2 3 4 5 6 6 7 8 9 11 12 13 14 15 16 17 17 18 19 19 20 20 21 21 21 21 21 19 18 18 19 19 19 20 20 20 19 19 20 21 22 22 21 21 21 21 20 20 20 21 21 23 24
16 15 14 13 12 10 9 7 6 5 4 3 3 2 2 1 2 3 4 5 6 7 8 9 11 12 13 14 15 16 17 17 18 19 19 19 20 20 21 21 21 21 20 19 19 19 19 19 20 20 20 20 20 20 21 21 21 21 21 21 20 20 20 21 21 22 23 23 24
15 14 13 12 11 10 8 7 6 5 4 3 3 2 1 1 2 3 4 5 7 8 9 10 11 12 13 14 16 17 17 18 18 19 19 20 20 21 21 21 21 21 20 19 19 19 19 19 20 20 20 20 20 20 21 21 21 21 20 21 20 20 20 21 21 22 23 24 25
14 14 13 12 10 9 8 6 5 5 4 3 2 2 1 2 3 4 5 6 7 8 9 10 11 12 13 14 15 17 18 19 19 19 20 20 20 21 21 21 21 20 20 19 19 19 19 19 20 20 20 20 20 21 21 21 21 20 21 21 21 21 21 21 21 22 23 24 25
14 13 12 11 10 8 7 6 5 4 4 3 2 1 1 2 3 4 6 7 8 9 10 11 12 13 14 15 16 17 18 19 20 20 20 20 20 21 21 21 21 20 19 19 19 19 19 19 20 20 20 20 21 21 21 21 20 20 21 21 21 21 21 22 22 23 24 25 25
12 12 11 10 9 8 7 6 5 4 3 2 2 1 2 3 4 5 6 7 9 10 11 12 13 14 15 16 17 18 18 19 20 20 20 20 20 21 21 21 21 20 19 19 19 19 19 19 20 20 20 21 21 21 21 21 20 20 21 21 21 21 21 22 23 24 24 24 24
11 11 10 9 9 8 7 6 5 4 3 2 1 1 2 3 4 6 7 8 10 11 12 13 14 15 16 16 17 18 18 19 19 20 20 20 20 20 21 21 21 20 19 19 19 19 19 19 20 20 20 21 21 21 21 20 20 21 21 21 21 22 22 23 24 24 24 23 21
10 10 9 9 8 7 6 5 4 3 2 1 1 2 3 4 5 6 8 9 10 11 13 14 14 15 16 17 18 18 19 19 19 19 19 20 20 20 20 21 21 20 19 19 19 19 19 19 20 20 20 20 21 21 20 20 20 21 21 21 22 23 23 23 23 23 21 20 19
10 9 9 8 7 7 6 5 4 3 2 1 1 2 4 5 6 7 8 9 10 11 13 14 15 15 16 17 18 19 19 19 19 19 19 19 19 19 19 20 20 19 19 19 19 19 19 19 19 20 20 20 21 20 20 20 20 21 21 22 23 24 24 24 22 19 18 18 19
9 9 8 8 7 6 5 4 3 2 1 1 2 3 5 6 7 8 9 10 11 12 13 14 15 16 16 17 18 18 19 20 19 19 19 19 19 19 19 19 19 19 19 19 19 19 19 19 19 20 20 20 21 20 20 20 20 21 22 22 23 24 24 22 19 16 16 19 22
Wind_Direction
164 163 163 162 161 159 157 157 157 158 158 158 156 155 156 157 155 155 157 160 159 157 155 149 139 125 113 86 360 324 311 308 311 314 316 319 320 321 321 321 321 321 322 322 322 323 323 324 326 328 330 332 334 336 339 341 343 343 343 344 344 344 343 342 342 342 342 340 339
165 164 163 162 160 158 157 156 157 159 159 158 157 156 158 161 160 160 159 160 163 165 165 157 149 140 124 58 331 315 311 313 316 321 325 327 326 324 324 324 325 324 324 325 324 325 326 327 328 331 333 334 336 338 341 343 344 344 343 343 343 342 342 341 341 341 340 339 338
165 164 163 162 160 159 157 157 158 159 158 157 157 157 159 162 163 162 161 164 170 175 173 166 163 168 206 310 309 307 317 324 329 331 333 333 330 328 327 326 327 327 326 327 328 329 330 331 333 335 337 338 339 341 343 344 344 343 342 341 341 341 340 340 339 339 339 337 336
165 164 164 163 162 161 160 159 158 158 157 156 156 158 160 162 165 166 168 173 175 176 176 177 183 202 261 293 303 310 325 331 334 336 336 334 333 331 330 329 329 330 331 332 333 334 335 336 338 340 341 342 342 343 344 344 343 341 340 339 339 339 338 338 339 339 338 336 335
164 164 164 164 164 163 162 160 159 158 157 158 158 158 160 163 167 170 172 174 174 176 181 188 201 223 258 282 295 315 331 336 336 336 334 334 335 334 334 333 335 337 337 338 339 339 340 340 341 343 343 343 343 343 343 342 340 339 337 337 337 337 337 337 338 338 336 334 333
164 164 164 164 164 163 162 162 161 160 159 160 159 159 161 164 168 169 170 170 174 179 185 195 211 231 246 256 280 322 335 338 337 335 335 336 337 337 338 340 342 342 343 343 343 343 343 343 343 343 343 342 341 341 340 340 338 336 335 335 335 336 337 337 337 337 335 333 332
164 164 164 164 165 164 163 162 162 160 160 161 161 161 161 164 165 166 167 171 178 183 188 197 210 219 223 228 277 335 339 342 340 339 338 339 340 341 342 344 346 347 347 346 345 345 344 343 343 342 341 340 339 338 338 337 336 335 334 334 334 335 336 336 336 335 334 332 330
163 164 164 164 165 165 163 162 161 160 159 159 160 161 161 161 162 163 166 172 176 182 188 196 201 200 197 202 331 340 340 342 344 345 345 343 344 344 345 346 347 349 349 347 346 345 343 342 342 341 340 339 337 337 336 335 334 334 333 333 334 335 336 336 335 334 332 330 329
161 162 163 164 164 163 162 161 161 160 158 158 158 158 158 158 159 161 165 169 174 179 184 185 183 176 163 360 345 343 342 344 347 349 349 347 346 347 347 347 348 349 348 347 345 344 342 340 340 339 338 337 336 335 334 334 334 333 333 333 333 334 335 335 334 333 331 329 327
159 160 161 161 161 160 160 159 159 159 158 156 155 156 157 158 160 163 167 170 172 174 174 169 162 152 111 360 351 348 349 349 350 350 351 350 349 349 349 348 348 347 347 346 344 343 341 339 338 337 336 335 334 333 333 334 333 333 333 333 333 333 333 334 334 332 330 328 325
159 159 159 159 158 159 158 157 157 157 156 154 154 155 158 161 163 166 167 169 169 166 162 157 145 123 51 4 356 355 354 352 352 351 351 350 350 350 350 349 347 346 346 345 343 342 340 339 337 336 334 333 333 333 333 334 333 333 332 333 333 332 332 333 333 332 329 326 324
157 158 158 158 158 159 158 156 155 154 154 153 155 157 160 163 165 166 166 164 163 158 152 143 125 78 27 6 2 359 355 354 352 351 350 350 350 349 348 347 346 345 344 343 342 341 340 339 337 336 334 333 333 333 334 334 334 333 332 332 332 332 331 332 332 331 328 325 322
156 156 156 157 158 159 158 155 153 153 154 154 156 158 161 163 163 163 161 160 156 151 144 129 99 48 18 8 2 359 355 353 351 350 349 349 348 348 347 346 345 344 343 342 341 341 340 339 338 336 334 333 333 334 334 335 334 333 332 332 331 331 330 330 330 329 327 324 321
156 156 156 157 158 158 156 153 153 153 154 155 156 159 160 161 160 158 156 154 150 142 130 112 77 35 15 5 359 356 354 351 349 348 348 347 347 346 346 345 344 342 342 341 340 340 339 338 337 336 335 334 334 334 335 335 334 333 331 330 330 329 329 329 329 328 325 322 319
155 156 157 157 157 156 154 152 152 152 154 154 155 157 159 158 155 154 151 148 141 131 118 99 66 33 13 2 357 353 352 349 348 347 346 346 346 345 345 344 343 341 340 340 339 338 338 338 337 336 335 334 334 334 335 334 333 332 331 329 329 328 328 327 327 326 323 320 318
155 156 157 157 156 154 152 151 151 152 153 153 154 156 156 154 152 150 147 141 133 124 109 88 57 31 13 2 355 351 350 349 348 347 346 346 346 345 344 343 343 342 340 339 338 337 337 337 337 337 336 336 335 334 334 333 332 331 329 328 328 327 327 326 326 324 322 319 317
155 156 156 156 155 153 151 150 150 151 152 153 154 154 154 151 148 145 140 134 126 115 96 70 40 20 9 2 355 352 350 349 348 348 348 347 346 345 344 343 343 342 341 340 338 337 337 337 338 338 338 337 336 334 333 332 330 329 328 328 327 326 326 325 324 323 321 319 316
155 156 156 156 154 152 150 150 150 152 153 153 153 153 152 148 144 140 135 128 117 101 76 50 28 13 5 2 358 354 351 350 349 349 348 347 346 345 344 343 342 342 341 340 339 338 338 338 339 340 340 338 335 333 332 330 329 328 327 327 326 326 325 325 324 322 321 318 316
156 156 156 156 154 152 151 151 152 153 154 153 152 151 149 145 141 135 129 119 103 81 55 34 20 9 3 1 359 356 352 350 348 348 347 346 345 345 344 343 342 342 342 341 340 339 339 340 341 342 340 337 334 332 330 329 328 327 326 326 326 325 325 325 324 323 321 319 317
156 156 157 156 154 153 152 152 153 153 153 152 151 149 145 142 137 132 120 104 84 59 37 20 11 6 2 360 358 355 353 350 348 346 345 345 346 346 346 345 344 343 343 342 341 342 342 343 343 341 339 335 333 330 329 328 327 326 326 326 326 325 325 325 324 323 322 320 318
157 157 157 156 155 154 153 153 153 153 152 150 149 146 143 139 135 126 111 89 65 42 23 12 6 3 1 358 355 354 351 349 347 346 346 346 348 348 348 346 345 344 343 343 343 344 345 344 342 339 336 333 330 329 328 327 327 326 326 326 326 326 325 325 324 323 322 321 319
158 158 158 157 156 154 153 153 153 152 150 149 147 145 142 137 130 118 100 78 53 31 16 10 6 3 360 356 354 351 348 346 346 346 347 348 349 349 349 348 347 346 345 345 345 346 346 343 339 336 332 330 329 328 327 327 327 326 326 326 326 326 326 325 325 324 322 321 320
159 159 158 157 156 155 154 153 152 151 150 148 147 144 141 135 125 111 93 69 43 24 15 11 7 4 360 356 352 348 345 343 344 345 347 349 350 350 350 349 349 348 347 346 347 347 344 339 335 332 330 329 328 328 328 327 327 327 326 326 326 326 326 326 325 324 323 322 321
160 160 159 158 157 155 154 153 151 150 150 149 147 144 140 133 121 107 88 61 36 22 16 12 7 4 360 356 352 349 347 345 345 345 347 348 350 351 351 350 350 349 348 348 348 344 338 333 331 330 330 329 329 329 328 328 328 328 327 327 327 327 326 326 326 325 324 323 323
162 161 160 159 157 155 153 152 151 151 150 149 147 144 139 130 118 103 79 52 32 21 15 10 6 2 358 357 354 352 350 349 348 348 347 348 349 350 350 350 350 349 348 348 345 338 332 330 330 330 330 330 330 329 329 329 329 329 329 328 328 327 326 326 326 326 326 326 326
163 162 160 158 156 154 152 152 152 152 151 149 147 144 137 127 113 95 70 44 30 20 14 8 4 1 358 355 354 353 353 353 352 351 350 349 349 349 349 350 349 348 347 347 341 335 331 331 331 331 331 331 331 330 330 330 330 330 330 330 329 328 326 326 326 328 329 329 328
163 161 159 157 155 153 152 153 153 153 151 149 147 142 134 121 106 85 58 39 27 19 11 6 3 360 356 353 352 354 355 355 354 353 352 350 349 349 348 348 347 346 346 345 338 333 331 331 332 333 332 332 331 331 331 331 331 332 332 331 330 329 327 326 327 329 330 329 327
162 160 158 156 155 153 153 154 154 153 152 150 145 138 129 115 97 72 48 34 22 15 9 6 2 358 354 352 353 354 354 355 354 353 351 350 348 348 347 346 345 344 344 343 337 332 331 332 332 333 333 333 332 332 331 332 333 333 333 332 331 329 328 328 329 330 329 327 325
162 160 158 157 155 155 155 155 155 154 152 148 142 135 125 110 88 59 38 27 17 11 6 3 358 355 352 352 352 353 353 354 354 352 350 348 347 346 345 344 343 342 343 342 336 332 331 332 333 333 333 334 332 332 332 333 334 334 333 332 331 330 329 328 329 329 327 325 323
162 160 159 158 158 157 157 157 157 155 152 147 140 132 125 112 78 44 28 19 14 9 3 358 354 352 352 352 351 351 352 352 352 351 350 348 346 344 343 342 341 341 342 341 335 332 331 332 333 333 333 333 333 332 332 333 334 334 333 332 331 330 329 328 327 326 325 323 322
163 162 161 160 160 159 159 159 159 156 152 146 140 137 126 106 61 31 20 14 9 4 358 353 350 350 350 350 349 350 350 350 350 350 349 347 344 342 340 339 339 340 341 340 334 331 331 331 332 332 332 333 332 331 332 332 333 333 332 332 330 329 327 326 324 324 323 322 320
164 164 163 163 162 161 161 161 160 156 152 148 145 139 125 88 47 24 11 5 2 358 354 351 349 348 348 348 348 348 348 348 348 348 347 344 342 340 338 338 339 340 341 339 333 331 331 331 331 331 332 332 331 331 330 331 332 332 331 330 328 326 325 323 323 322 321 319 317
166 166 166 166 165 164 164 163 161 158 155 153 148 137 114 75 37 15 4 359 357 354 352 351 349 349 348 347 346 346 346 346 346 345 344 342 340 338 337 337 338 340 341 338 333 330 330 330 330 330 330 331 330 329 329 330 330 330 329 328 326 324 322 321 321 320 318 315 312
168 169 169 169 167 166 165 164 162 161 158 155 149 134 99 50 19 7 360 356 353 351 350 349 348 348 347 346 345 344 343 343 342 342 341 340 338 337 336 336 337 339 340 339 334 330 330 330 330 329 329 329 328 328 328 329 329 329 328 326 324 322 321 319 318 316 313 310 308
171 172 171 171 169 168 166 165 164 164 161 155 146 124 75 30 11 1 356 352 349 347 347 346 346 345 344 343 342 342 341 341 340 340 339 339 338 337 336 336 337 339 340 339 335 331 329 329 328 328 328 328 327 327 327 327 327 327 325 324 322 321 319 317 315 312 309 307 306
174 174 174 172 171 169 168 168 167 166 162 154 139 106 51 23 7 357 351 346 344 343 343 343 343 343 343 342 341 340 340 339 338 338 338 338 338 337 336 335 336 338 340 340 337 332 329 328 327 327 327 326 326 326 326 326 325 324 323 322 320 319 317 315 312 310 307 306 305
177 177 176 174 171 169 169 170 168 165 158 146 124 68 29 14 5 356 349 344 341 340 340 340 341 342 342 340 338 337 336 337 337 337 338 338 338 337 336 335 336 338 339 340 337 332 328 327 326 326 326 326 325 325 325 325 324 323 322 320 318 317 315 312 310 308 306 305 305
177 179 177 175 172 171 171 170 166 160 150 135 98 39 11 2 357 353 348 344 341 340 339 338 339 339 338 336 334 333 333 334 336 337 337 338 338 338 336 335 336 337 338 338 337 332 327 326 325 325 326 325 325 324 324 324 323 321 320 318 316 314 312 309 308 306 305 305 307
176 177 177 174 172 171 170 168 163 155 144 121 61 14 359 353 351 349 345 342 340 338 336 336 335 335 334 333 331 330 330 332 335 336 338 338 338 338 337 335 335 336 337 337 336 333 328 325 324 325 325 324 324 324 323 323 321 320 319 317 315 312 310 307 305 305 306 309 313
174 175 175 174 172 170 168 164 160 155 144 100 12 358 352 349 345 343 340 338 336 335 333 332 331 331 331 331 331 330 330 331 334 336 337 338 338 338 336 335 334 334 336 336 336 333 328 325 324 325 325 324 324 324 323 322 320 319 317 316 314 311 308 307 306 307 311 318 322
172 172 173 172 170 168 165 161 160 157 154 11 354 349 345 341 339 337 336 335 334 333 331 329 328 327 329 330 330 330 331 331 333 336 338 338 338 338 337 335 334 334 335 336 335 333 328 324 324 325 325 324 324 324 323 322 320 318 316 314 312 309 308 308 310 316 324 328 327